Time,TemperatureF,DewpointF,PressureIn,WindDirection,WindDirectionDegrees,WindSpeedMPH,WindSpeedGustMPH,Humidity,HourlyPrecipIn,Conditions,Clouds,dailyrainin,SolarRadiationWatts/m^2,SoftwareType,DateUTC
2013-02-03 00:12:00,24.2,0.0,30.11,West,273,1.0,4.0,35,0.00,,,0.00,0,weatherlink.com 1.10,2013-02-03 07:12:00,
2013-02-03 00:27:00,24.0,0.0,30.11,South,178,3.0,6.0,35,0.00,,,0.00,0,weatherlink.com 1.10,2013-02-03 07:27:00,
2013-02-03 00:42:00,23.9,-1.0,30.10,WSW,240,2.0,7.0,34,0.00,,,0.00,0,weatherlink.com 1.10,2013-02-03 07:42:00,
2013-02-03 00:57:00,24.1,-1.0,30.10,SW,223,1.0,7.0,34,0.00,,,0.00,0,weatherlink.com 1.10,2013-02-03 07:57:00,
2013-02-03 01:12:00,24.0,-1.0,30.09,West,259,1.0,4.0,33,0.00,,,0.00,0,weatherlink.com 1.10,2013-02-03 08:12:00,
2013-02-03 01:27:00,24.2,-2.0,30.09,SSW,211,0.0,6.0,32,0.00,,,0.00,0,weatherlink.com 1.10,2013-02-03 08:27:00,
2013-02-03 01:42:00,24.6,-2.0,30.08,SSW,201,2.0,9.0,31,0.00,,,0.00,0,weatherlink.com 1.10,2013-02-03 08:42:00,
2013-02-03 01:57:00,24.6,-3.0,30.08,WSW,249,0.0,8.0,30,0.00,,,0.00,0,weatherlink.com 1.10,2013-02-03 08:57:00,
2013-02-03 02:12:00,24.6,-4.0,30.07,WSW,240,3.0,9.0,29,0.00,,,0.00,0,weatherlink.com 1.10,2013-02-03 09:12:00,
2013-02-03 02:28:00,24.5,-4.0,30.06,WNW,286,2.0,7.0,28,0.00,,,0.00,0,weatherlink.com 1.10,2013-02-03 09:28:00,
2013-02-03 02:43:00,24.1,-5.0,30.05,WSW,257,2.0,4.0,28,0.00,,,0.00,0,weatherlink.com 1.10,2013-02-03 09:43:00,
2013-02-03 02:58:00,24.4,-5.0,30.05,West,261,0.0,6.0,27,0.00,,,0.00,0,weatherlink.com 1.10,2013-02-03 09:58:00,
2013-02-03 03:13:00,24.3,-6.0,30.04,West,259,1.0,5.0,26,0.00,,,0.00,0,weatherlink.com 1.10,2013-02-03 10:13:00,
2013-02-03 03:28:00,24.5,-5.0,30.03,NNE,32,2.0,4.0,27,0.00,,,0.00,0,weatherlink.com 1.10,2013-02-03 10:28:00,
2013-02-03 03:43:00,24.4,-5.0,30.03,West,277,0.0,6.0,28,0.00,,,0.00,0,weatherlink.com 1.10,2013-02-03 10:43:00,
2013-02-03 03:58:00,24.9,-6.0,30.02,West,279,2.0,4.0,26,0.00,,,0.00,0,weatherlink.com 1.10,2013-02-03 10:58:00,
2013-02-03 04:13:00,25.2,-7.0,30.01,WNW,282,4.0,4.0,24,0.00,,,0.00,0,weatherlink.com 1.10,2013-02-03 11:13:00,
2013-02-03 04:28:00,25.3,-7.0,30.01,South,184,0.0,4.0,24,0.00,,,0.00,0,weatherlink.com 1.10,2013-02-03 11:28:00,
2013-02-03 04:43:00,25.0,-7.0,30.00,SSE,163,1.0,4.0,24,0.00,,,0.00,0,weatherlink.com 1.10,2013-02-03 11:43:00,
2013-02-03 04:58:00,24.9,-8.0,30.00,SSE,161,0.0,4.0,23,0.00,,,0.00,0,weatherlink.com 1.10,2013-02-03 11:58:00,
2013-02-03 05:13:00,25.5,-9.0,30.00,WSW,242,0.0,4.0,22,0.00,,,0.00,0,weatherlink.com 1.10,2013-02-03 12:13:00,
2013-02-03 05:28:00,25.0,-9.0,29.99,South,176,2.0,3.0,22,0.00,,,0.00,0,weatherlink.com 1.10,2013-02-03 12:28:00,
2013-02-03 05:44:00,25.3,-10.0,29.98,West,265,1.0,5.0,21,0.00,,,0.00,0,weatherlink.com 1.10,2013-02-03 12:44:00,
2013-02-03 05:59:00,25.8,-10.0,29.98,WNW,288,0.0,4.0,20,0.00,,,0.00,0,weatherlink.com 1.10,2013-02-03 12:59:00,
2013-02-03 06:14:00,26.0,-10.0,29.97,West,270,3.0,9.0,20,0.00,,,0.00,0,weatherlink.com 1.10,2013-02-03 13:14:00,
2013-02-03 06:29:00,26.2,-11.0,29.96,West,260,2.0,7.0,19,0.00,,,0.00,0,weatherlink.com 1.10,2013-02-03 13:29:00,
2013-02-03 06:44:00,26.0,-11.0,29.96,WSW,255,1.0,6.0,19,0.00,,,0.00,0,weatherlink.com 1.10,2013-02-03 13:44:00,
2013-02-03 06:59:00,26.1,-11.0,29.95,WNW,300,3.0,8.0,19,0.00,,,0.00,0,weatherlink.com 1.10,2013-02-03 13:59:00,
2013-02-03 07:14:00,26.2,-11.0,29.94,West,260,3.0,8.0,19,0.00,,,0.00,5,weatherlink.com 1.10,2013-02-03 14:14:00,
2013-02-03 07:29:00,26.2,-11.0,29.93,West,274,1.0,8.0,19,0.00,,,0.00,18,weatherlink.com 1.10,2013-02-03 14:29:00,
2013-02-03 07:44:00,26.1,-10.0,29.93,West,280,7.0,9.0,20,0.00,,,0.00,81,weatherlink.com 1.10,2013-02-03 14:44:00,
2013-02-03 07:59:00,27.1,-10.0,29.93,WSW,253,4.0,10.0,19,0.00,,,0.00,109,weatherlink.com 1.10,2013-02-03 14:59:00,
2013-02-03 08:14:00,27.6,-10.0,29.93,West,275,8.0,9.0,19,0.00,,,0.00,111,weatherlink.com 1.10,2013-02-03 15:14:00,
2013-02-03 08:29:00,28.3,-9.0,29.92,WSW,257,6.0,12.0,19,0.00,,,0.00,135,weatherlink.com 1.10,2013-02-03 15:29:00,
2013-02-03 08:44:00,28.5,-9.0,29.92,WNW,290,2.0,8.0,19,0.00,,,0.00,153,weatherlink.com 1.10,2013-02-03 15:44:00,
2013-02-03 08:59:00,28.7,-9.0,29.92,WSW,249,1.0,11.0,19,0.00,,,0.00,121,weatherlink.com 1.10,2013-02-03 15:59:00,
2013-02-03 09:15:00,29.0,-9.0,29.91,WSW,258,1.0,6.0,19,0.00,,,0.00,146,weatherlink.com 1.10,2013-02-03 16:15:00,
2013-02-03 09:30:00,29.4,-9.0,29.91,WSW,253,1.0,10.0,18,0.00,,,0.00,206,weatherlink.com 1.10,2013-02-03 16:30:00,
2013-02-03 09:45:00,30.7,-12.0,29.91,WSW,248,5.0,8.0,15,0.00,,,0.00,434,weatherlink.com 1.10,2013-02-03 16:45:00,
2013-02-03 10:00:00,32.6,-10.0,29.90,West,270,3.0,6.0,15,0.00,,,0.00,425,weatherlink.com 1.10,2013-02-03 17:00:00,
2013-02-03 10:15:00,33.6,-10.0,29.89,WSW,242,4.0,11.0,15,0.00,,,0.00,397,weatherlink.com 1.10,2013-02-03 17:15:00,
2013-02-03 10:30:00,33.7,-8.0,29.88,WNW,286,4.0,9.0,16,0.00,,,0.00,383,weatherlink.com 1.10,2013-02-03 17:30:00,
2013-02-03 10:45:00,34.3,-8.0,29.88,West,274,2.0,12.0,16,0.00,,,0.00,441,weatherlink.com 1.10,2013-02-03 17:45:00,
2013-02-03 11:00:00,35.6,-5.0,29.88,WNW,290,2.0,6.0,17,0.00,,,0.00,350,weatherlink.com 1.10,2013-02-03 18:00:00,
2013-02-03 11:15:00,36.6,-3.0,29.87,West,264,3.0,6.0,18,0.00,,,0.00,355,weatherlink.com 1.10,2013-02-03 18:15:00,
2013-02-03 11:30:00,37.7,-3.0,29.85,West,266,4.0,8.0,18,0.00,,,0.00,338,weatherlink.com 1.10,2013-02-03 18:30:00,
2013-02-03 11:45:00,38.4,1.0,29.84,SW,229,1.0,6.0,21,0.00,,,0.00,383,weatherlink.com 1.10,2013-02-03 18:45:00,
2013-02-03 12:00:00,38.0,0.0,29.82,WNW,290,4.0,9.0,20,0.00,,,0.00,288,weatherlink.com 1.10,2013-02-03 19:00:00,
2013-02-03 12:15:00,37.0,2.0,29.80,NNE,25,3.0,6.0,23,0.00,,,0.00,283,weatherlink.com 1.10,2013-02-03 19:15:00,
2013-02-03 12:30:00,36.4,0.0,29.79,NW,311,2.0,10.0,21,0.00,,,0.00,251,weatherlink.com 1.10,2013-02-03 19:30:00,
2013-02-03 12:46:00,36.1,-1.0,29.79,NW,307,2.0,7.0,21,0.00,,,0.00,237,weatherlink.com 1.10,2013-02-03 19:46:00,
2013-02-03 13:01:00,36.5,-1.0,29.79,WSW,251,2.0,6.0,20,0.00,,,0.00,246,weatherlink.com 1.10,2013-02-03 20:01:00,
2013-02-03 13:16:00,36.9,-2.0,29.78,NNW,333,4.0,9.0,19,0.00,,,0.00,227,weatherlink.com 1.10,2013-02-03 20:16:00,
2013-02-03 13:31:00,37.1,0.0,29.77,NW,305,2.0,6.0,21,0.00,,,0.00,236,weatherlink.com 1.10,2013-02-03 20:31:00,
2013-02-03 13:46:00,37.4,2.0,29.77,West,269,4.0,8.0,22,0.00,,,0.00,269,weatherlink.com 1.10,2013-02-03 20:46:00,
2013-02-03 14:01:00,37.0,-1.0,29.76,NW,313,4.0,9.0,20,0.00,,,0.00,236,weatherlink.com 1.10,2013-02-03 21:01:00,
2013-02-03 14:16:00,36.6,-1.0,29.76,West,278,2.0,8.0,20,0.00,,,0.00,227,weatherlink.com 1.10,2013-02-03 21:16:00,
2013-02-03 14:31:00,36.2,4.0,29.75,West,273,5.0,13.0,26,0.00,,,0.00,183,weatherlink.com 1.10,2013-02-03 21:31:00,
2013-02-03 14:46:00,35.7,5.0,29.75,WNW,303,3.0,11.0,27,0.00,,,0.00,207,weatherlink.com 1.10,2013-02-03 21:46:00,
2013-02-03 15:01:00,35.5,4.0,29.75,WNW,302,4.0,11.0,27,0.00,,,0.00,167,weatherlink.com 1.10,2013-02-03 22:01:00,
2013-02-03 15:16:00,35.0,6.0,29.75,WNW,287,6.0,6.0,29,0.00,,,0.00,162,weatherlink.com 1.10,2013-02-03 22:16:00,
2013-02-03 15:31:00,34.8,7.0,29.75,NW,308,1.0,8.0,31,0.00,,,0.00,163,weatherlink.com 1.10,2013-02-03 22:31:00,
2013-02-03 15:46:00,34.5,6.0,29.75,WNW,282,3.0,10.0,30,0.00,,,0.00,135,weatherlink.com 1.10,2013-02-03 22:46:00,
2013-02-03 16:02:00,33.8,5.0,29.75,WNW,302,3.0,7.0,29,0.00,,,0.00,105,weatherlink.com 1.10,2013-02-03 23:02:00,
2013-02-03 16:17:00,33.0,3.0,29.74,NW,317,3.0,9.0,28,0.00,,,0.00,79,weatherlink.com 1.10,2013-02-03 23:17:00,
2013-02-03 16:32:00,32.3,3.0,29.74,WNW,282,2.0,9.0,29,0.00,,,0.00,53,weatherlink.com 1.10,2013-02-03 23:32:00,
2013-02-03 16:47:00,31.5,5.0,29.74,WNW,303,3.0,9.0,33,0.00,,,0.00,33,weatherlink.com 1.10,2013-02-03 23:47:00,
2013-02-03 17:02:00,30.7,5.0,29.74,WNW,292,1.0,9.0,34,0.00,,,0.00,19,weatherlink.com 1.10,2013-02-04 00:02:00,
2013-02-03 17:17:00,30.3,6.0,29.74,West,271,2.0,11.0,35,0.00,,,0.00,9,weatherlink.com 1.10,2013-02-04 00:17:00,
2013-02-03 17:32:00,29.7,10.0,29.75,WNW,300,0.0,4.0,44,0.00,,,0.00,0,weatherlink.com 1.10,2013-02-04 00:32:00,
2013-02-03 17:47:00,28.7,9.0,29.75,NW,319,0.0,1.0,43,0.00,,,0.00,0,weatherlink.com 1.10,2013-02-04 00:47:00,
2013-02-03 18:02:00,28.4,8.0,29.75,NW,319,1.0,2.0,42,0.00,,,0.00,0,weatherlink.com 1.10,2013-02-04 01:02:00,
2013-02-03 18:17:00,28.1,7.0,29.75,NNW,333,0.0,4.0,40,0.00,,,0.00,0,weatherlink.com 1.10,2013-02-04 01:17:00,
2013-02-03 18:32:00,27.4,8.0,29.75,WNW,293,0.0,4.0,44,0.00,,,0.00,0,weatherlink.com 1.10,2013-02-04 01:32:00,
2013-02-03 18:47:00,26.7,7.0,29.76,WNW,296,0.0,1.0,43,0.00,,,0.00,0,weatherlink.com 1.10,2013-02-04 01:47:00,
2013-02-03 19:02:00,26.8,6.0,29.76,WNW,300,0.0,3.0,41,0.00,,,0.00,0,weatherlink.com 1.10,2013-02-04 02:02:00,
2013-02-03 19:17:00,26.5,6.0,29.76,NW,314,3.0,4.0,42,0.00,,,0.00,0,weatherlink.com 1.10,2013-02-04 02:17:00,
2013-02-03 19:33:00,25.6,5.0,29.76,NW,313,0.0,3.0,41,0.00,,,0.00,0,weatherlink.com 1.10,2013-02-04 02:33:00,
2013-02-03 19:48:00,24.7,4.0,29.75,West,281,0.0,2.0,41,0.00,,,0.00,0,weatherlink.com 1.10,2013-02-04 02:48:00,
2013-02-03 20:03:00,24.2,3.0,29.76,West,267,0.0,4.0,40,0.00,,,0.00,0,weatherlink.com 1.10,2013-02-04 03:03:00,
2013-02-03 20:18:00,24.2,4.0,29.77,WSW,253,0.0,4.0,41,0.00,,,0.00,0,weatherlink.com 1.10,2013-02-04 03:18:00,
2013-02-03 20:33:00,23.9,3.0,29.77,West,259,0.0,1.0,41,0.00,,,0.00,0,weatherlink.com 1.10,2013-02-04 03:33:00,
2013-02-03 20:48:00,23.5,2.0,29.77,WSW,248,2.0,6.0,39,0.00,,,0.00,0,weatherlink.com 1.10,2013-02-04 03:48:00,
2013-02-03 21:03:00,23.2,2.0,29.79,ENE,73,0.0,3.0,39,0.00,,,0.00,0,weatherlink.com 1.10,2013-02-04 04:03:00,
2013-02-03 21:18:00,22.1,1.0,29.78,ENE,78,0.0,2.0,40,0.00,,,0.00,0,weatherlink.com 1.10,2013-02-04 04:18:00,
2013-02-03 21:33:00,21.1,1.0,29.79,NNE,28,1.0,2.0,41,0.00,,,0.00,0,weatherlink.com 1.10,2013-02-04 04:33:00,
2013-02-03 21:48:00,20.6,1.0,29.79,NW,316,0.0,5.0,42,0.00,,,0.00,0,weatherlink.com 1.10,2013-02-04 04:48:00,
2013-02-03 22:03:00,20.7,1.0,29.77,WNW,290,0.0,3.0,42,0.00,,,0.00,0,weatherlink.com 1.10,2013-02-04 05:03:00,
2013-02-03 22:18:00,20.9,1.0,29.79,WNW,290,1.0,2.0,41,0.00,,,0.00,0,weatherlink.com 1.10,2013-02-04 05:18:00,
2013-02-03 22:33:00,20.6,1.0,29.78,West,269,0.0,4.0,42,0.00,,,0.00,0,weatherlink.com 1.10,2013-02-04 05:33:00,
2013-02-03 22:49:00,19.7,-2.0,29.78,NE,37,0.0,2.0,39,0.00,,,0.00,0,weatherlink.com 1.10,2013-02-04 05:49:00,
2013-02-03 23:04:00,19.2,-2.0,29.79,SE,142,3.0,3.0,39,0.00,,,0.00,0,weatherlink.com 1.10,2013-02-04 06:04:00,
2013-02-03 23:19:00,19.8,-3.0,29.79,SE,142,0.0,1.0,37,0.00,,,0.00,0,weatherlink.com 1.10,2013-02-04 06:19:00,
2013-02-03 23:34:00,20.2,-3.0,29.78,SE,142,0.0,0.0,36,0.00,,,0.00,0,weatherlink.com 1.10,2013-02-04 06:34:00,
2013-02-03 23:49:00,18.7,-4.0,29.78,SE,140,0.0,2.0,37,0.00,,,0.00,0,weatherlink.com 1.10,2013-02-04 06:49:00,